GW6586 Weather Reports


Display with metric or nautical units.
time (UTC)temp
F
wind
direction
speed
MPH
gust
MPH
rain 1hr
in
rain 24hr
in
rain mn
in
humidity
%
barometer
mb
20260503180018 56 84 5.0 11.0 0.00 0.00 0.00 72 1026.3
20260503174521 56 108 6.0 10.0 0.00 0.00 0.00 73 1026.2
20260503173007 56 123 5.0 9.0 0.00 0.00 0.00 73 1026.3
20260503171524 56 101 6.0 8.0 0.00 0.00 0.00 74 1026.3
20260503054507 66 118 3.0 11.0 0.00 0.00 0.00 62 1024.6
20260503053012 65 133 6.0 13.0 0.00 0.00 0.00 62 1024.7
20260503051510 65 128 5.0 12.0 0.00 0.00 0.00 63 1024.9
20260503050011 64 165 4.0 9.0 0.00 0.00 0.00 64 1025.0
20260503041517 63 99 2.0 11.0 0.00 0.00 0.00 66 1025.6
20260503040016 63 139 5.0 12.0 0.00 0.00 0.00 67 1025.8
20260503034517 62 134 6.0 11.0 0.00 0.00 0.00 66 1026.0
20260503031517 60 112 8.0 14.0 0.00 0.00 0.00 70 1026.1
20260503030013 60 55 9.0 14.0 0.00 0.00 0.00 70 1026.1
20260503024518 60 130 4.0 11.0 0.00 0.00 0.00 70 1026.5
20260503023017 59 153 5.0 11.0 0.00 0.00 0.00 72 1026.7
20260503020017 58 131 6.0 12.0 0.00 0.00 0.00 73 1026.8
20260503014533 58 126 5.0 10.0 0.00 0.00 0.00 75 1026.7
20260503011519 56 154 3.0 12.0 0.00 0.00 0.00 77 1026.7
20260503010017 56 140 5.0 12.0 0.00 0.00 0.00 77 1026.7
20260503004515 56 131 3.0 9.0 0.00 0.00 0.00 77 1026.6
20260503003012 55 121 6.0 10.0 0.00 0.00 0.00 78 1026.5
20260503001519 54 134 3.0 5.0 0.00 0.00 0.00 81 1026.3
20260503000003 52 153 4.0 6.0 0.00 0.00 0.00 82 1026.3
20260502234515 51 126 3.0 6.0 0.00 0.00 0.00 83 1026.1
20260502233028 50 128 3.0 6.0 0.00 0.00 0.00 85 1026.1
20260502230020 49 121 3.0 6.0 0.00 0.00 0.00 86 1025.7
20260502223010 49 120 4.0 6.0 0.00 0.00 0.00 86 1025.2
20260502221520 49 128 3.0 4.0 0.00 0.00 0.00 87 1025.2
20260502220008 49 123 3.0 4.0 0.00 0.00 0.00 87 1025.1
20260502214516 49 123 3.0 4.0 0.00 0.00 0.00 86 1025.1
20260502213025 49 117 3.0 6.0 0.00 0.00 0.00 87 1025.0
20260502211519 49 94 4.0 4.0 0.00 0.00 0.00 87 1024.8
20260502210020 49 114 3.0 4.0 0.00 0.00 0.00 86 1024.9
20260502204526 50 134 2.0 4.0 0.00 0.00 0.00 85 1024.7
20260502203016 50 121 3.0 4.0 0.00 0.00 0.00 85 1024.7
20260502201521 50 121 2.0 3.0 0.00 0.00 0.00 84 1024.7
20260502194519 51 121 2.0 4.0 0.00 0.00 0.00 84 1024.7
20260502193026 51 113 3.0 4.0 0.00 0.00 0.00 84 1024.8
20260502191510 51 130 2.0 3.0 0.00 0.00 0.00 83 1024.9
20260502190023 51 130 2.0 4.0 0.00 0.00 0.00 83 1024.9
20260502184545 51 125 3.0 4.0 0.00 0.00 0.00 82 1024.9
20260502181534 52 123 2.0 3.0 0.00 0.00 0.00 82 1024.8